Walden-Jackson Cnty AP, Walde, CO

4:05 AM MDT on July 22, 2017 (GMT -0600)
Walden-Jackson Cnty AP, Walde

Weather History for K33V - June, 2014

Change the Weather History Date:

Monday, June 23, 2014

  Actual Average Record
Temperature  
Mean Temperature 54 °F -  
Max Temperature 73 °F - 80 °F (2015)
Min Temperature 35 °F - 32 °F (2013)
Degree Days  
Heating Degree Days 11    
Month to date heating degree days  
Cooling Degree Days 0    
Month to date cooling degree days  
Growing Degree Days 4 (Base 50)    
Moisture  
Dew Point 33 °F    
Average Humidity 56    
Maximum Humidity 93    
Minimum Humidity 17    
Precipitation  
Precipitation 0.00 in - 0.00 in (2017)
Sea Level Pressure  
Sea Level Pressure 30.25 in    
Wind  
Wind Speed 5 mph (SSE)    
Max Wind Speed 26 mph    
Max Gust Speed 50 mph    
Visibility 10 miles    
Events      
T = Trace of Precipitation, MM = Missing Value Source: NWS Daily Summary

Daily Weather History Graph

Daily Weather History Graph

Search for Another Location

Airport or City:

Trip Planner

Search our weather history database for the weather conditions in past years. The results will help you decide how hot, cold, wet, or windy it might be!

Date:

Astronomy

Jun. 23, 2014 Rise Set
Actual Time 5:34 AM MDT 8:40 PM MDT
Civil Twilight 5:01 AM MDT 9:13 PM MDT
Nautical Twilight 4:18 AM MDT 9:56 PM MDT
Astronomical Twilight 3:27 AM MDT 10:46 PM MDT
Moon 3:03 AM MDT (6/23) 5:23 PM MDT (6/23)
Length of Visible Light 16h 12m
Length of Day
15h 05m
Waning Crescent, 12% of the Moon is Illuminated
Jun 23
Waning Crescent
Jun 27
New
Jul 5
First Quarter
Jul 12
Full
Jul 18
Last Quarter

Hourly Weather History & Observations

Time (MDT) Temp. Windchill Dew Point Humidity Pressure Visibility Wind Dir Wind Speed Gust Speed Precip Events Conditions
12:15 AM 46.4 °F - 37.4 °F 71% 30.22 in 10.0 mi Calm Calm - N/A   Scattered Clouds
12:34 AM 42.8 °F - 35.6 °F 76% 30.23 in 10.0 mi Calm Calm - N/A   Clear
12:55 AM 41.0 °F - 33.8 °F 76% 30.23 in 10.0 mi Calm Calm - N/A   Clear
1:15 AM 41.0 °F 37.1 °F 33.8 °F 76% 30.23 in 10.0 mi ENE 5.8 mph - N/A   Clear
1:35 AM 44.6 °F - 35.6 °F 71% 30.23 in 10.0 mi Calm Calm - N/A   Clear
1:55 AM 39.2 °F 35.9 °F 32.0 °F 75% 30.23 in 10.0 mi SE 4.6 mph - N/A   Clear
2:15 AM 41.0 °F 37.1 °F 33.8 °F 76% 30.23 in 10.0 mi SE 5.8 mph - N/A   Clear
2:35 AM 37.4 °F 33.8 °F 33.8 °F 87% 30.23 in 10.0 mi SE 4.6 mph - N/A   Clear
2:55 AM 37.4 °F 34.9 °F 33.8 °F 87% 30.23 in 10.0 mi SE 3.5 mph - N/A   Clear
3:14 AM 37.4 °F 33.8 °F 33.8 °F 87% 30.23 in 10.0 mi SE 4.6 mph - N/A   Clear
3:35 AM 35.6 °F 30.7 °F 32.0 °F 87% 30.23 in 10.0 mi SE 5.8 mph - N/A   Clear
3:54 AM 37.4 °F 34.9 °F 33.8 °F 87% 30.23 in 10.0 mi South 3.5 mph - N/A   Clear
4:15 AM 35.6 °F 31.7 °F 32.0 °F 87% 30.23 in 10.0 mi SE 4.6 mph - N/A   Clear
4:35 AM 35.6 °F 30.7 °F 33.8 °F 93% 30.24 in 10.0 mi East 5.8 mph - N/A   Clear
4:54 AM 35.6 °F - 33.8 °F 93% 30.25 in 10.0 mi Calm Calm - N/A   Clear
5:15 AM 35.6 °F 30.7 °F 33.8 °F 93% 30.24 in 10.0 mi ESE 5.8 mph - N/A   Clear
5:35 AM 35.6 °F - 32.0 °F 87% 30.24 in 10.0 mi Calm Calm - N/A   Clear
5:55 AM 35.6 °F 31.7 °F 32.0 °F 87% 30.25 in 10.0 mi ESE 4.6 mph - N/A   Clear
6:15 AM 35.6 °F 29.2 °F 32.0 °F 87% 30.25 in 10.0 mi ESE 8.1 mph - N/A   Clear
6:35 AM 35.6 °F 29.2 °F 32.0 °F 87% 30.25 in 10.0 mi SE 8.1 mph - N/A   Clear
6:55 AM 37.4 °F 32.8 °F 33.8 °F 87% 30.25 in 10.0 mi SSE 5.8 mph - N/A   Clear
7:15 AM 41.0 °F 39.0 °F 33.8 °F 76% 30.26 in 10.0 mi SE 3.5 mph - N/A   Clear
7:55 AM 46.4 °F 43.5 °F 37.4 °F 71% 30.26 in 10.0 mi SE 5.8 mph - N/A   Clear
8:15 AM 50.0 °F - 39.2 °F 66% 30.27 in 10.0 mi SSW 3.5 mph - N/A   Clear
8:35 AM 50.0 °F - 37.4 °F 62% 30.27 in 10.0 mi Calm Calm - N/A   Clear
8:55 AM 51.8 °F - 37.4 °F 58% 30.27 in 10.0 mi WSW 3.5 mph - N/A   Clear
9:15 AM 53.6 °F - 41.0 °F 62% 30.27 in 10.0 mi West 3.5 mph - N/A   Clear
9:35 AM 53.6 °F - 39.2 °F 58% 30.27 in 10.0 mi Calm Calm - N/A   Clear
9:55 AM 55.4 °F - 37.4 °F 51% 30.27 in 10.0 mi South 3.5 mph - N/A   Clear
10:15 AM 59.0 °F - 39.2 °F 48% 30.27 in 10.0 mi Calm Calm - N/A   Clear
10:35 AM 60.8 °F - 39.2 °F 45% 30.27 in 10.0 mi Calm Calm - N/A   Clear
10:55 AM 60.8 °F - 33.8 °F 36% 30.27 in 10.0 mi SE 4.6 mph - N/A   Clear
11:15 AM 64.4 °F - 33.8 °F 32% 30.27 in 10.0 mi SE 5.8 mph - N/A   Clear
11:35 AM 64.4 °F - 32.0 °F 30% 30.26 in 10.0 mi SE 3.5 mph - N/A   Clear
11:55 AM 66.2 °F - 32.0 °F 28% 30.26 in 10.0 mi East 6.9 mph - N/A   Clear
12:15 PM 68.0 °F - 32.0 °F 26% 30.25 in 10.0 mi North 3.5 mph - N/A   Clear
12:35 PM 69.8 °F - 32.0 °F 25% 30.25 in 10.0 mi SE 3.5 mph - N/A   Clear
1:15 PM 69.8 °F - 28.4 °F 21% 30.24 in 10.0 mi West 11.5 mph - N/A   Clear
1:55 PM 73.4 °F - 26.6 °F 18% 30.23 in 10.0 mi West 13.8 mph 20.7 mph N/A   Scattered Clouds
2:34 PM 69.8 °F - 32.0 °F 25% 30.24 in 10.0 mi North 10.4 mph 17.3 mph N/A   Mostly Cloudy
3:15 PM 69.8 °F - 24.8 °F 18% 30.23 in 10.0 mi WNW 4.6 mph 19.6 mph N/A   Mostly Cloudy
3:36 PM 69.8 °F - 28.4 °F 21% 30.22 in 10.0 mi WNW 5.8 mph - N/A   Mostly Cloudy
4:15 PM 69.8 °F - 23.0 °F 17% 30.21 in 10.0 mi West 13.8 mph 21.9 mph N/A   Mostly Cloudy
4:35 PM 66.2 °F - 26.6 °F 23% 30.21 in 10.0 mi SW 10.4 mph 21.9 mph N/A   Overcast
4:54 PM 66.2 °F - 26.6 °F 23% 30.21 in 10.0 mi West 16.1 mph 26.5 mph N/A   Overcast
5:16 PM 66.2 °F - 21.2 °F 18% 30.21 in 10.0 mi WSW 13.8 mph 20.7 mph N/A   Overcast
5:35 PM 62.6 °F - 26.6 °F 26% 30.25 in 7.0 mi West 17.3 mph 49.5 mph N/A   Mostly Cloudy
5:54 PM 60.8 °F - 28.4 °F 29% 30.21 in 10.0 mi WNW 11.5 mph - N/A   Scattered Clouds
6:15 PM 60.8 °F - 30.2 °F 31% 30.21 in 10.0 mi West 8.1 mph - N/A   Clear
6:35 PM 59.0 °F - 32.0 °F 36% 30.25 in 10.0 mi SSW 16.1 mph 23.0 mph N/A   Mostly Cloudy
6:55 PM 59.0 °F - 33.8 °F 39% 30.28 in 10.0 mi SW 26.5 mph 32.2 mph N/A   Overcast
7:15 PM 55.4 °F - 35.6 °F 47% 30.28 in 10.0 mi West 21.9 mph 32.2 mph N/A   Overcast
7:35 PM 55.4 °F - 33.8 °F 44% 30.29 in 10.0 mi West 18.4 mph 26.5 mph N/A   Overcast
7:55 PM 55.4 °F - 33.8 °F 44% 30.28 in 10.0 mi West 12.7 mph 23.0 mph N/A   Overcast
8:15 PM 55.4 °F - 32.0 °F 41% 30.26 in 10.0 mi Calm Calm - N/A   Overcast
8:35 PM 53.6 °F - 33.8 °F 47% 30.26 in 10.0 mi NW 3.5 mph - N/A   Overcast
8:55 PM 53.6 °F - 35.6 °F 51% 30.25 in 10.0 mi ESE 11.5 mph - N/A   Overcast
9:14 PM 53.6 °F - 37.4 °F 54% 30.26 in 10.0 mi ESE 9.2 mph - N/A   Overcast
9:35 PM 50.0 °F - 37.4 °F 62% 30.28 in 10.0 mi SE 8.1 mph - N/A   Scattered Clouds
9:55 PM 50.0 °F - 35.6 °F 58% 30.28 in 10.0 mi SSE 8.1 mph - N/A   Clear
10:15 PM 50.0 °F - 35.6 °F 58% 30.29 in 10.0 mi ESE 6.9 mph - N/A   Scattered Clouds
10:35 PM 50.0 °F - 35.6 °F 58% 30.29 in 10.0 mi ENE 8.1 mph - N/A   Mostly Cloudy
10:54 PM 50.0 °F - 35.6 °F 58% 30.30 in 10.0 mi ESE 6.9 mph - N/A   Scattered Clouds
11:14 PM 50.0 °F - 37.4 °F 62% 30.30 in 10.0 mi ESE 5.8 mph - N/A   Mostly Cloudy
11:35 PM 50.0 °F - 37.4 °F 62% 30.30 in 10.0 mi SE 9.2 mph - N/A   Mostly Cloudy
11:55 PM 50.0 °F - 35.6 °F 58% 30.29 in 10.0 mi SSE 9.2 mph - N/A   Mostly Cloudy